Year,Month,Day,Hour,Minute,Value (Times are PST for windgust in km/hr)
2021,02,11,02,44,25.70
2021,02,11,02,45,24.20
2021,02,11,02,46,25.70
2021,02,11,02,47,24.20
2021,02,11,02,48,24.20
2021,02,11,02,49,11.30
2021,02,11,02,50,14.50
2021,02,11,02,51,19.30
2021,02,11,02,52,25.70
2021,02,11,02,53,20.90
2021,02,11,02,54,17.70
2021,02,11,02,55,32.20
2021,02,11,02,56,11.30
2021,02,11,02,57,22.50
2021,02,11,02,58,30.60
2021,02,11,02,59,30.60
2021,02,11,03,00,30.60
2021,02,11,03,01,30.60
2021,02,11,03,02,27.40
2021,02,11,03,03,20.90
2021,02,11,03,04,24.20
2021,02,11,03,05,17.70
2021,02,11,03,06,14.50
2021,02,11,03,07,22.50
2021,02,11,03,08,41.80
2021,02,11,03,09,25.70
2021,02,11,03,10,38.60
2021,02,11,03,11,38.60
2021,02,11,03,12,37.00
2021,02,11,03,13,14.50
2021,02,11,03,14,22.50
2021,02,11,03,15,32.20
2021,02,11,03,16,30.60
2021,02,11,03,17,25.70
2021,02,11,03,18,25.70
2021,02,11,03,19,20.90
2021,02,11,03,20,30.60
2021,02,11,03,21,25.70
2021,02,11,03,22,27.40
2021,02,11,03,23,30.60
2021,02,11,03,24,22.50
2021,02,11,03,25,20.90
2021,02,11,03,26,19.30
2021,02,11,03,27,35.40
2021,02,11,03,28,30.60
2021,02,11,03,29,33.80
2021,02,11,03,30,17.70
2021,02,11,03,31,17.70
2021,02,11,03,32,12.90
2021,02,11,03,33,19.30
2021,02,11,03,34,27.40
2021,02,11,03,35,27.40
2021,02,11,03,36,20.90
2021,02,11,03,37,20.90
2021,02,11,03,38,19.30
2021,02,11,03,39,20.90
2021,02,11,03,40,20.90
2021,02,11,03,41,20.90
2021,02,11,03,42,17.70
2021,02,11,03,43,19.30
2021,02,11,03,44,24.20
2021,02,11,03,45,29.00
2021,02,11,03,46,32.20
2021,02,11,03,47,32.20
2021,02,11,03,48,35.40
2021,02,11,03,49,29.00
2021,02,11,03,50,25.70
2021,02,11,03,51,29.00
2021,02,11,03,52,32.20
2021,02,11,03,53,30.60
2021,02,11,03,54,32.20
2021,02,11,03,55,25.70
2021,02,11,03,56,19.30
2021,02,11,03,57,11.30
2021,02,11,03,58,20.90
2021,02,11,03,59,27.40
2021,02,11,04,00,22.50
2021,02,11,04,01,24.20
2021,02,11,04,02,16.10
2021,02,11,04,03,16.10
2021,02,11,04,04,19.30
2021,02,11,04,05,17.70
2021,02,11,04,06,16.10
2021,02,11,04,07,14.50
2021,02,11,04,08,16.10
2021,02,11,04,09,16.10
2021,02,11,04,10,24.20
2021,02,11,04,11,16.10
2021,02,11,04,12,24.20
2021,02,11,04,13,24.20
2021,02,11,04,14,19.30
2021,02,11,04,15,30.60
2021,02,11,04,16,30.60
2021,02,11,04,17,29.00
2021,02,11,04,18,37.00
2021,02,11,04,19,30.60
2021,02,11,04,20,19.30
2021,02,11,04,21,20.90
2021,02,11,04,22,19.30
2021,02,11,04,23,17.70
2021,02,11,04,24,20.90
2021,02,11,04,25,11.30
2021,02,11,04,26,24.20
2021,02,11,04,27,16.10
2021,02,11,04,28,19.30
2021,02,11,04,29,20.90
2021,02,11,04,30,25.70
2021,02,11,04,31,19.30
2021,02,11,04,32,22.50
2021,02,11,04,33,19.30
2021,02,11,04,34,20.90
2021,02,11,04,35,17.70
2021,02,11,04,36,20.90
2021,02,11,04,37,27.40
2021,02,11,04,38,22.50
2021,02,11,04,39,20.90
2021,02,11,04,40,22.50
2021,02,11,04,41,25.70
2021,02,11,04,42,25.70
2021,02,11,04,43,33.80
2021,02,11,04,44,27.40
2021,02,11,04,45,25.70
2021,02,11,04,46,25.70
2021,02,11,04,47,25.70
2021,02,11,04,48,27.40
2021,02,11,04,49,20.90
2021,02,11,04,50,27.40
2021,02,11,04,51,25.70
2021,02,11,04,52,25.70
2021,02,11,04,53,30.60
2021,02,11,04,54,30.60
2021,02,11,04,55,27.40
2021,02,11,04,56,27.40
2021,02,11,04,57,22.50
2021,02,11,04,58,20.90
2021,02,11,04,59,29.00
2021,02,11,05,00,33.80
2021,02,11,05,01,37.00
2021,02,11,05,02,35.40
2021,02,11,05,03,35.40
2021,02,11,05,04,35.40
2021,02,11,05,05,22.50
2021,02,11,05,06,22.50
2021,02,11,05,07,33.80
2021,02,11,05,08,33.80
2021,02,11,05,09,37.00
2021,02,11,05,10,40.20
2021,02,11,05,11,35.40
2021,02,11,05,12,33.80
2021,02,11,05,13,32.20
2021,02,11,05,14,20.90
2021,02,11,05,15,40.20
2021,02,11,05,16,45.10
2021,02,11,05,17,24.20
2021,02,11,05,18,38.60
2021,02,11,05,19,32.20
2021,02,11,05,20,25.70
2021,02,11,05,21,33.80
2021,02,11,05,22,29.00
2021,02,11,05,23,29.00
2021,02,11,05,24,29.00
2021,02,11,05,25,29.00
2021,02,11,05,26,30.60
2021,02,11,05,27,33.80
2021,02,11,05,28,29.00
2021,02,11,05,29,35.40
2021,02,11,05,30,35.40
2021,02,11,05,31,33.80
2021,02,11,05,32,24.20
2021,02,11,05,33,17.70
2021,02,11,05,34,25.70
2021,02,11,05,35,22.50
2021,02,11,05,36,30.60
2021,02,11,05,37,30.60
2021,02,11,05,38,20.90
2021,02,11,05,39,35.40
2021,02,11,05,40,40.20
2021,02,11,05,41,38.60
2021,02,11,05,42,35.40
2021,02,11,05,43,29.00
2021,02,11,05,44,37.00
2021,02,11,05,45,32.20
2021,02,11,05,46,38.60
2021,02,11,05,47,35.40
2021,02,11,05,48,29.00
2021,02,11,05,49,38.60
2021,02,11,05,50,40.20
2021,02,11,05,51,40.20
2021,02,11,05,52,27.40
2021,02,11,05,53,40.20
2021,02,11,05,54,40.20
2021,02,11,05,55,46.70
2021,02,11,05,56,33.80
2021,02,11,05,57,40.20
2021,02,11,05,58,46.70
2021,02,11,05,59,27.40
2021,02,11,06,00,33.80
2021,02,11,06,01,37.00
2021,02,11,06,02,45.10
2021,02,11,06,03,35.40
2021,02,11,06,04,27.40
2021,02,11,06,05,30.60
2021,02,11,06,06,30.60
2021,02,11,06,07,45.10
2021,02,11,06,08,45.10
2021,02,11,06,09,37.00
2021,02,11,06,10,29.00
2021,02,11,06,11,38.60
2021,02,11,06,12,29.00
2021,02,11,06,13,35.40
2021,02,11,06,14,30.60
2021,02,11,06,15,32.20
2021,02,11,06,16,25.70
2021,02,11,06,17,25.70
2021,02,11,06,18,24.20
2021,02,11,06,19,25.70
2021,02,11,06,20,17.70
2021,02,11,06,21,38.60
2021,02,11,06,22,27.40
2021,02,11,06,23,38.60
2021,02,11,06,24,30.60
2021,02,11,06,25,30.60
2021,02,11,06,26,24.20
2021,02,11,06,27,32.20
2021,02,11,06,28,38.60
2021,02,11,06,29,38.60
2021,02,11,06,30,51.50
2021,02,11,06,31,40.20
2021,02,11,06,32,40.20
2021,02,11,06,33,32.20
2021,02,11,06,34,30.60
2021,02,11,06,35,29.00
2021,02,11,06,36,37.00
2021,02,11,06,37,37.00
2021,02,11,06,38,25.70
2021,02,11,06,39,30.60
2021,02,11,06,40,25.70
2021,02,11,06,41,29.00
2021,02,11,06,42,27.40
2021,02,11,06,43,32.20
2021,02,11,06,44,35.40
2021,02,11,06,45,40.20
2021,02,11,06,46,35.40
2021,02,11,06,47,27.40
2021,02,11,06,48,30.60
2021,02,11,06,49,24.20
2021,02,11,06,50,22.50
2021,02,11,06,51,19.30
2021,02,11,06,52,19.30
2021,02,11,06,53,30.60
2021,02,11,06,54,30.60
2021,02,11,06,55,35.40
2021,02,11,06,56,45.10
2021,02,11,06,57,49.90
2021,02,11,06,58,49.90
2021,02,11,06,59,40.20
2021,02,11,07,00,43.50
2021,02,11,07,01,41.80
2021,02,11,07,02,41.80
2021,02,11,07,03,46.70
2021,02,11,07,04,51.50
2021,02,11,07,05,45.10
2021,02,11,07,06,43.50
2021,02,11,07,07,35.40
2021,02,11,07,08,27.40
2021,02,11,07,09,48.30
2021,02,11,07,10,49.90
2021,02,11,07,11,40.20
2021,02,11,07,12,43.50
2021,02,11,07,13,45.10
2021,02,11,07,14,49.90
2021,02,11,07,15,51.50
2021,02,11,07,16,43.50
2021,02,11,07,17,45.10
2021,02,11,07,18,45.10
2021,02,11,07,19,53.10
2021,02,11,07,20,53.10
2021,02,11,07,21,43.50
2021,02,11,07,22,48.30
2021,02,11,07,23,53.10
2021,02,11,07,24,38.60
2021,02,11,07,25,53.10
2021,02,11,07,26,54.70
2021,02,11,07,27,43.50
2021,02,11,07,28,43.50
2021,02,11,07,29,53.10
2021,02,11,07,30,53.10
2021,02,11,07,31,51.50
2021,02,11,07,32,33.80
2021,02,11,07,33,38.60
2021,02,11,07,34,38.60
2021,02,11,07,35,32.20
2021,02,11,07,36,38.60
2021,02,11,07,37,33.80
2021,02,11,07,38,41.80
2021,02,11,07,39,43.50
2021,02,11,07,40,38.60
2021,02,11,07,41,38.60
2021,02,11,07,42,29.00
2021,02,11,07,43,32.20
2021,02,11,07,44,53.10
2021,02,11,07,45,37.00
2021,02,11,07,46,41.80
2021,02,11,07,47,40.20
2021,02,11,07,48,43.50
2021,02,11,07,49,43.50
2021,02,11,07,50,49.90
2021,02,11,07,51,51.50
2021,02,11,07,52,51.50
2021,02,11,07,53,51.50
2021,02,11,07,54,38.60
2021,02,11,07,55,40.20
2021,02,11,07,56,57.90
2021,02,11,07,57,38.60
2021,02,11,07,58,48.30
2021,02,11,07,59,57.90
2021,02,11,08,00,53.10
2021,02,11,08,01,53.10
2021,02,11,08,02,49.90
2021,02,11,08,03,38.60
2021,02,11,08,04,53.10
2021,02,11,08,05,53.10
2021,02,11,08,06,53.10
2021,02,11,08,07,54.70
2021,02,11,08,08,48.30
2021,02,11,08,09,51.50
2021,02,11,08,10,53.10
2021,02,11,08,11,43.50
2021,02,11,08,12,48.30
2021,02,11,08,13,49.90
2021,02,11,08,14,43.50
2021,02,11,08,15,38.60
2021,02,11,08,16,43.50
2021,02,11,08,17,40.20
2021,02,11,08,18,29.00
2021,02,11,08,19,49.90
2021,02,11,08,20,49.90
2021,02,11,08,21,59.50
2021,02,11,08,22,59.50
2021,02,11,08,23,33.80
2021,02,11,08,24,56.30
2021,02,11,08,25,48.30
2021,02,11,08,26,53.10
2021,02,11,08,27,48.30
2021,02,11,08,28,54.70
2021,02,11,08,29,54.70
2021,02,11,08,30,53.10
2021,02,11,08,31,48.30
2021,02,11,08,32,43.50
2021,02,11,08,33,41.80
2021,02,11,08,34,53.10
2021,02,11,08,35,40.20
2021,02,11,08,36,43.50
2021,02,11,08,37,32.20
2021,02,11,08,38,48.30
2021,02,11,08,39,46.70
2021,02,11,08,40,45.10
2021,02,11,08,41,46.70
2021,02,11,08,42,51.50
2021,02,11,08,43,53.10
2021,02,11,08,44,48.30
2021,02,11,08,45,48.30
2021,02,11,08,46,53.10
2021,02,11,08,47,46.70
2021,02,11,08,48,49.90
2021,02,11,08,49,51.50
2021,02,11,08,50,53.10
2021,02,11,08,51,53.10
2021,02,11,08,52,46.70
2021,02,11,08,53,53.10
2021,02,11,08,54,46.70
2021,02,11,08,55,48.30
2021,02,11,08,56,48.30
2021,02,11,08,57,43.50
2021,02,11,08,58,45.10
2021,02,11,08,59,37.00
2021,02,11,09,00,45.10
2021,02,11,09,01,35.40
2021,02,11,09,02,35.40
2021,02,11,09,03,43.50
2021,02,11,09,04,46.70
2021,02,11,09,05,57.90
2021,02,11,09,06,57.90
2021,02,11,09,07,53.10
2021,02,11,09,08,51.50
2021,02,11,09,09,53.10
2021,02,11,09,10,54.70
2021,02,11,09,11,54.70
2021,02,11,09,12,49.90
2021,02,11,09,13,48.30
2021,02,11,09,14,54.70
2021,02,11,09,15,40.20
2021,02,11,09,16,40.20
2021,02,11,09,17,48.30
2021,02,11,09,18,46.70
2021,02,11,09,19,41.80
2021,02,11,09,20,37.00
2021,02,11,09,21,43.50
2021,02,11,09,22,41.80
2021,02,11,09,23,54.70
2021,02,11,09,24,54.70
2021,02,11,09,25,56.30
2021,02,11,09,26,43.50
2021,02,11,09,27,43.50
2021,02,11,09,28,37.00
2021,02,11,09,29,43.50
2021,02,11,09,30,43.50
2021,02,11,09,31,41.80
2021,02,11,09,32,41.80
2021,02,11,09,33,53.10
2021,02,11,09,34,56.30
2021,02,11,09,35,56.30
2021,02,11,09,36,51.50
2021,02,11,09,37,41.80
2021,02,11,09,38,40.20
2021,02,11,09,39,41.80
2021,02,11,09,40,32.20
2021,02,11,09,41,38.60
2021,02,11,09,42,53.10
2021,02,11,09,43,61.20
2021,02,11,09,44,61.20
2021,02,11,09,45,46.70
2021,02,11,09,46,43.50
2021,02,11,09,47,33.80
2021,02,11,09,48,40.20
2021,02,11,09,49,59.50
2021,02,11,09,50,46.70
2021,02,11,09,51,51.50
2021,02,11,09,52,54.70
2021,02,11,09,53,53.10
2021,02,11,09,54,49.90
2021,02,11,09,55,40.20
2021,02,11,09,56,48.30
2021,02,11,09,57,45.10
2021,02,11,09,58,49.90
2021,02,11,09,59,43.50
2021,02,11,10,00,53.10
2021,02,11,10,01,59.50
2021,02,11,10,02,53.10
2021,02,11,10,03,53.10
2021,02,11,10,04,57.90
2021,02,11,10,05,53.10
2021,02,11,10,06,48.30
2021,02,11,10,07,43.50
2021,02,11,10,08,53.10
2021,02,11,10,09,48.30
2021,02,11,10,10,46.70
2021,02,11,10,11,48.30
2021,02,11,10,12,56.30
2021,02,11,10,13,56.30
2021,02,11,10,14,53.10
2021,02,11,10,15,56.30
2021,02,11,10,16,49.90
2021,02,11,10,17,46.70
2021,02,11,10,18,56.30
2021,02,11,10,19,45.10
2021,02,11,10,20,53.10
2021,02,11,10,21,45.10
2021,02,11,10,22,43.50
2021,02,11,10,23,53.10
2021,02,11,10,24,46.70
2021,02,11,10,25,46.70
2021,02,11,10,26,41.80
2021,02,11,10,27,40.20
2021,02,11,10,28,51.50
2021,02,11,10,29,59.50
2021,02,11,10,30,53.10
2021,02,11,10,31,41.80
2021,02,11,10,32,40.20
2021,02,11,10,33,37.00
2021,02,11,10,34,45.10
2021,02,11,10,35,62.70
2021,02,11,10,36,40.20
2021,02,11,10,37,51.50
2021,02,11,10,38,53.10
2021,02,11,10,39,54.70
2021,02,11,10,40,54.70
2021,02,11,10,41,37.00
2021,02,11,10,42,46.70
2021,02,11,10,43,53.10
2021,02,11,10,44,53.10
2021,02,11,10,45,38.60
2021,02,11,10,46,35.40
2021,02,11,10,47,51.50
2021,02,11,10,48,51.50
2021,02,11,10,49,49.90
2021,02,11,10,50,40.20
2021,02,11,10,51,53.10
2021,02,11,10,52,51.50
2021,02,11,10,53,53.10
2021,02,11,10,54,46.70
2021,02,11,10,55,43.50
2021,02,11,10,56,53.10
2021,02,11,10,57,46.70
2021,02,11,10,58,49.90
2021,02,11,10,59,56.30
2021,02,11,11,00,54.70
2021,02,11,11,01,61.20
2021,02,11,11,02,51.50
2021,02,11,11,03,51.50
2021,02,11,11,04,51.50
2021,02,11,11,05,62.70
2021,02,11,11,06,49.90
2021,02,11,11,07,45.10
2021,02,11,11,08,54.70
2021,02,11,11,09,49.90
2021,02,11,11,10,49.90
2021,02,11,11,11,54.70
2021,02,11,11,12,37.00
2021,02,11,11,13,45.10
2021,02,11,11,14,61.20
2021,02,11,11,15,61.20
2021,02,11,11,16,46.70
2021,02,11,11,17,53.10
2021,02,11,11,18,62.70
2021,02,11,11,19,64.40
2021,02,11,11,20,61.20
2021,02,11,11,21,64.40
2021,02,11,11,22,61.20
2021,02,11,11,23,53.10
2021,02,11,11,24,53.10
2021,02,11,11,25,56.30
2021,02,11,11,26,41.80
2021,02,11,11,27,43.50
2021,02,11,11,28,48.30
2021,02,11,11,29,48.30
2021,02,11,11,30,53.10
2021,02,11,11,31,54.70
2021,02,11,11,32,49.90
2021,02,11,11,33,40.20
2021,02,11,11,34,54.70
2021,02,11,11,35,54.70
2021,02,11,11,36,46.70
2021,02,11,11,37,43.50
2021,02,11,11,38,56.30
2021,02,11,11,39,56.30
2021,02,11,11,40,61.20
2021,02,11,11,41,59.50
2021,02,11,11,42,57.90
2021,02,11,11,43,59.50
2021,02,11,11,44,57.90
2021,02,11,11,45,57.90
2021,02,11,11,46,56.30
2021,02,11,11,47,59.50
2021,02,11,11,48,54.70
2021,02,11,11,49,49.90
2021,02,11,11,50,41.80
2021,02,11,11,51,53.10
2021,02,11,11,52,53.10
2021,02,11,11,53,48.30
2021,02,11,11,54,46.70
2021,02,11,11,55,53.10
2021,02,11,11,56,54.70
2021,02,11,11,57,56.30
2021,02,11,11,58,49.90
2021,02,11,11,59,38.60
2021,02,11,12,00,61.20
2021,02,11,12,01,56.30
2021,02,11,12,02,48.30
2021,02,11,12,03,30.60
2021,02,11,12,04,51.50
2021,02,11,12,05,37.00
2021,02,11,12,06,48.30
2021,02,11,12,07,37.00
2021,02,11,12,08,37.00
2021,02,11,12,09,37.00
2021,02,11,12,10,38.60
2021,02,11,12,11,53.10
2021,02,11,12,12,53.10
2021,02,11,12,13,45.10
2021,02,11,12,14,53.10
2021,02,11,12,15,59.50
2021,02,11,12,16,57.90
2021,02,11,12,17,54.70
2021,02,11,12,18,62.70
2021,02,11,12,19,54.70
2021,02,11,12,20,46.70
2021,02,11,12,21,49.90
2021,02,11,12,22,64.40
2021,02,11,12,23,56.30
2021,02,11,12,24,56.30
2021,02,11,12,25,46.70
2021,02,11,12,26,48.30
2021,02,11,12,27,54.70
2021,02,11,12,28,53.10
2021,02,11,12,29,57.90
2021,02,11,12,30,51.50
2021,02,11,12,31,49.90
2021,02,11,12,32,54.70
2021,02,11,12,33,51.50
2021,02,11,12,34,53.10
2021,02,11,12,35,62.70
2021,02,11,12,36,59.50
2021,02,11,12,37,49.90
2021,02,11,12,38,43.50
2021,02,11,12,39,59.50
2021,02,11,12,40,54.70
2021,02,11,12,41,51.50
2021,02,11,12,42,54.70
2021,02,11,12,43,54.70
2021,02,11,12,44,62.70
2021,02,11,12,45,64.40
2021,02,11,12,46,62.70
2021,02,11,12,47,64.40
2021,02,11,12,48,54.70
2021,02,11,12,49,57.90
2021,02,11,12,50,64.40
2021,02,11,12,51,59.50
2021,02,11,12,52,53.10
2021,02,11,12,53,53.10
2021,02,11,12,54,56.30
2021,02,11,12,55,61.20
2021,02,11,12,56,53.10
2021,02,11,12,57,49.90
2021,02,11,12,58,46.70
2021,02,11,12,59,46.70
2021,02,11,13,00,45.10
2021,02,11,13,01,33.80
2021,02,11,13,02,48.30
2021,02,11,13,03,75.60
2021,02,11,13,04,62.70
2021,02,11,13,05,62.70
2021,02,11,13,06,57.90
2021,02,11,13,07,64.40
2021,02,11,13,08,54.70
2021,02,11,13,09,53.10
2021,02,11,13,10,53.10
2021,02,11,13,11,54.70
2021,02,11,13,12,53.10
2021,02,11,13,13,56.30
2021,02,11,13,14,56.30
2021,02,11,13,15,53.10
2021,02,11,13,16,51.50
2021,02,11,13,17,48.30
2021,02,11,13,18,54.70
2021,02,11,13,19,43.50
2021,02,11,13,20,57.90
2021,02,11,13,21,59.50
2021,02,11,13,22,54.70
2021,02,11,13,23,57.90
2021,02,11,13,24,56.30
2021,02,11,13,25,56.30
2021,02,11,13,26,54.70
2021,02,11,13,27,53.10
2021,02,11,13,28,43.50
2021,02,11,13,29,53.10
2021,02,11,13,30,40.20
2021,02,11,13,31,53.10
2021,02,11,13,32,62.70
2021,02,11,13,33,62.70
2021,02,11,13,34,61.20
2021,02,11,13,35,66.00
2021,02,11,13,36,67.60
2021,02,11,13,37,53.10
2021,02,11,13,38,54.70
2021,02,11,13,39,49.90
2021,02,11,13,40,53.10
2021,02,11,13,41,53.10
2021,02,11,13,42,48.30
2021,02,11,13,43,53.10
2021,02,11,13,44,61.20
2021,02,11,13,45,54.70
2021,02,11,13,46,64.40
2021,02,11,13,47,64.40
2021,02,11,13,48,54.70
2021,02,11,13,49,56.30
2021,02,11,13,50,53.10
2021,02,11,13,51,53.10
2021,02,11,13,52,54.70
2021,02,11,13,53,61.20
2021,02,11,13,54,56.30
2021,02,11,13,55,45.10
2021,02,11,13,56,61.20
2021,02,11,13,57,56.30
2021,02,11,13,58,53.10
2021,02,11,13,59,48.30
2021,02,11,14,00,45.10
2021,02,11,14,01,49.90
2021,02,11,14,02,40.20
2021,02,11,14,03,49.90
2021,02,11,14,04,54.70
2021,02,11,14,05,56.30
2021,02,11,14,06,48.30
2021,02,11,14,07,57.90
2021,02,11,14,08,59.50
2021,02,11,14,09,61.20
2021,02,11,14,10,67.60
2021,02,11,14,11,67.60
2021,02,11,14,12,66.00
2021,02,11,14,13,67.60
2021,02,11,14,14,62.70
2021,02,11,14,15,70.80
2021,02,11,14,16,66.00
2021,02,11,14,17,57.90
2021,02,11,14,18,64.40
2021,02,11,14,19,70.80
2021,02,11,14,20,64.40
2021,02,11,14,21,48.30
2021,02,11,14,22,67.60
2021,02,11,14,23,53.10
2021,02,11,14,24,54.70
2021,02,11,14,25,61.20
2021,02,11,14,26,64.40
2021,02,11,14,27,64.40
2021,02,11,14,28,59.50
2021,02,11,14,29,72.40
2021,02,11,14,30,57.90
2021,02,11,14,31,54.70
2021,02,11,14,32,66.00
2021,02,11,14,33,62.70
2021,02,11,14,34,48.30
2021,02,11,14,35,54.70
2021,02,11,14,36,43.50
2021,02,11,14,37,53.10
2021,02,11,14,38,57.90
2021,02,11,14,39,53.10
2021,02,11,14,40,64.40
2021,02,11,14,41,62.70
2021,02,11,14,42,66.00
2021,02,11,14,43,61.20
2021,02,11,14,44,59.50
2021,02,11,14,45,64.40
2021,02,11,14,46,53.10
2021,02,11,14,47,66.00
2021,02,11,14,48,54.70
2021,02,11,14,49,61.20
2021,02,11,14,50,61.20
2021,02,11,14,51,61.20
2021,02,11,14,52,62.70
2021,02,11,14,53,53.10
2021,02,11,14,54,53.10
2021,02,11,14,55,53.10
2021,02,11,14,56,57.90
2021,02,11,14,57,56.30
2021,02,11,14,58,64.40
2021,02,11,14,59,48.30
2021,02,11,15,00,61.20
2021,02,11,15,01,54.70
2021,02,11,15,02,54.70
2021,02,11,15,03,66.00
2021,02,11,15,04,56.30
2021,02,11,15,05,57.90
2021,02,11,15,06,59.50
2021,02,11,15,07,61.20
2021,02,11,15,08,48.30
2021,02,11,15,09,62.70
2021,02,11,15,10,57.90
2021,02,11,15,11,61.20
2021,02,11,15,12,57.90
2021,02,11,15,13,59.50
2021,02,11,15,14,54.70
2021,02,11,15,15,54.70
2021,02,11,15,16,54.70
2021,02,11,15,17,59.50
2021,02,11,15,18,51.50
2021,02,11,15,19,59.50
2021,02,11,15,20,53.10
2021,02,11,15,21,46.70
2021,02,11,15,22,53.10
2021,02,11,15,23,66.00
2021,02,11,15,24,61.20
2021,02,11,15,25,61.20
2021,02,11,15,26,57.90
2021,02,11,15,27,59.50
2021,02,11,15,28,56.30
2021,02,11,15,29,59.50
2021,02,11,15,30,53.10
2021,02,11,15,31,43.50
2021,02,11,15,32,54.70
2021,02,11,15,33,64.40
2021,02,11,15,34,56.30
2021,02,11,15,35,56.30
2021,02,11,15,36,62.70
2021,02,11,15,37,62.70
2021,02,11,15,38,59.50
2021,02,11,15,39,49.90
2021,02,11,15,40,62.70
2021,02,11,15,41,61.20
2021,02,11,15,42,49.90
2021,02,11,15,43,53.10
2021,02,11,15,44,43.50
2021,02,11,15,45,54.70
2021,02,11,15,46,53.10
2021,02,11,15,47,54.70
2021,02,11,15,48,53.10
2021,02,11,15,49,54.70
2021,02,11,15,50,56.30
2021,02,11,15,51,53.10
2021,02,11,15,52,48.30
2021,02,11,15,53,53.10
2021,02,11,15,54,59.50
2021,02,11,15,55,38.60
2021,02,11,15,56,46.70
2021,02,11,15,57,53.10
2021,02,11,15,58,45.10
2021,02,11,15,59,53.10
2021,02,11,16,00,53.10
2021,02,11,16,01,54.70
2021,02,11,16,02,45.10
2021,02,11,16,03,48.30
2021,02,11,16,04,56.30
2021,02,11,16,05,59.50
2021,02,11,16,06,54.70
2021,02,11,16,07,62.70
2021,02,11,16,08,48.30
2021,02,11,16,09,48.30
2021,02,11,16,10,45.10
2021,02,11,16,11,49.90
2021,02,11,16,12,54.70
2021,02,11,16,13,62.70
2021,02,11,16,14,41.80
2021,02,11,16,15,53.10
2021,02,11,16,16,48.30
2021,02,11,16,17,56.30
2021,02,11,16,18,46.70
2021,02,11,16,19,53.10
2021,02,11,16,20,53.10
2021,02,11,16,21,49.90
2021,02,11,16,22,45.10
2021,02,11,16,23,43.50
2021,02,11,16,24,51.50
2021,02,11,16,25,54.70
2021,02,11,16,26,45.10
2021,02,11,16,27,37.00
2021,02,11,16,28,41.80
2021,02,11,16,29,51.50
2021,02,11,16,30,64.40
2021,02,11,16,31,57.90
2021,02,11,16,32,54.70
2021,02,11,16,33,62.70
2021,02,11,16,34,56.30
2021,02,11,16,35,64.40
2021,02,11,16,36,57.90
2021,02,11,16,37,59.50
2021,02,11,16,38,59.50
2021,02,11,16,39,43.50
2021,02,11,16,40,64.40
2021,02,11,16,41,62.70
2021,02,11,16,42,54.70
2021,02,11,16,43,54.70
2021,02,11,16,44,49.90
2021,02,11,16,45,56.30
2021,02,11,16,46,56.30
2021,02,11,16,47,61.20
2021,02,11,16,48,48.30
2021,02,11,16,49,53.10
2021,02,11,16,50,46.70
2021,02,11,16,51,61.20
2021,02,11,16,52,59.50
2021,02,11,16,53,53.10
2021,02,11,16,54,49.90
2021,02,11,16,55,45.10
2021,02,11,16,56,46.70
2021,02,11,16,57,48.30
2021,02,11,16,58,53.10
2021,02,11,16,59,62.70
2021,02,11,17,00,56.30
2021,02,11,17,01,51.50
2021,02,11,17,02,49.90
2021,02,11,17,03,66.00
2021,02,11,17,04,72.40
2021,02,11,17,05,57.90
2021,02,11,17,06,53.10
2021,02,11,17,07,53.10
2021,02,11,17,08,45.10
2021,02,11,17,09,57.90
2021,02,11,17,10,61.20
2021,02,11,17,11,62.70
2021,02,11,17,12,59.50
2021,02,11,17,13,61.20
2021,02,11,17,14,64.40
2021,02,11,17,15,56.30
2021,02,11,17,16,64.40
2021,02,11,17,17,57.90
2021,02,11,17,18,53.10
2021,02,11,17,19,54.70
2021,02,11,17,20,53.10
2021,02,11,17,21,53.10
2021,02,11,17,22,49.90
2021,02,11,17,23,48.30
2021,02,11,17,24,57.90
2021,02,11,17,25,53.10
2021,02,11,17,26,59.50
2021,02,11,17,27,61.20
2021,02,11,17,28,64.40
2021,02,11,17,29,56.30
2021,02,11,17,30,61.20
2021,02,11,17,31,48.30
2021,02,11,17,32,53.10
2021,02,11,17,33,56.30
2021,02,11,17,34,54.70
2021,02,11,17,35,53.10
2021,02,11,17,36,64.40
2021,02,11,17,37,56.30
2021,02,11,17,38,57.90
2021,02,11,17,39,64.40
2021,02,11,17,40,46.70
2021,02,11,17,41,67.60
2021,02,11,17,42,64.40
2021,02,11,17,43,53.10
2021,02,11,17,44,53.10
2021,02,11,17,45,48.30
2021,02,11,17,46,51.50
2021,02,11,17,47,53.10
2021,02,11,17,48,51.50
2021,02,11,17,49,46.70
2021,02,11,17,50,57.90
2021,02,11,17,51,53.10
2021,02,11,17,52,49.90
2021,02,11,17,53,45.10
2021,02,11,17,54,43.50
2021,02,11,17,55,40.20
2021,02,11,17,56,59.50
2021,02,11,17,57,66.00
2021,02,11,17,58,64.40
2021,02,11,17,59,59.50
2021,02,11,18,00,51.50
2021,02,11,18,01,45.10
2021,02,11,18,02,41.80
2021,02,11,18,03,61.20
2021,02,11,18,04,56.30
2021,02,11,18,05,48.30
2021,02,11,18,06,64.40
2021,02,11,18,07,69.20
2021,02,11,18,08,59.50
2021,02,11,18,09,45.10
2021,02,11,18,10,64.40
2021,02,11,18,11,59.50
2021,02,11,18,12,64.40
2021,02,11,18,13,49.90
2021,02,11,18,14,46.70
2021,02,11,18,15,59.50
2021,02,11,18,16,66.00
2021,02,11,18,17,61.20
2021,02,11,18,18,54.70
2021,02,11,18,19,53.10
2021,02,11,18,20,57.90
2021,02,11,18,21,69.20
2021,02,11,18,22,53.10
2021,02,11,18,23,53.10
2021,02,11,18,24,45.10
2021,02,11,18,25,56.30
2021,02,11,18,26,61.20
2021,02,11,18,27,53.10
2021,02,11,18,28,43.50
2021,02,11,18,29,51.50
2021,02,11,18,30,57.90
2021,02,11,18,31,64.40
2021,02,11,18,32,54.70
2021,02,11,18,33,45.10
2021,02,11,18,34,43.50
2021,02,11,18,35,53.10
2021,02,11,18,36,37.00
2021,02,11,18,37,40.20
2021,02,11,18,38,45.10
2021,02,11,18,39,57.90
2021,02,11,18,40,59.50
2021,02,11,18,41,57.90
2021,02,11,18,42,53.10
2021,02,11,18,43,64.40
2021,02,11,18,44,56.30
2021,02,11,18,45,64.40
2021,02,11,18,46,67.60
2021,02,11,18,47,66.00
2021,02,11,18,48,62.70
2021,02,11,18,49,54.70
2021,02,11,18,50,57.90
2021,02,11,18,51,67.60
2021,02,11,18,52,56.30
2021,02,11,18,53,61.20
2021,02,11,18,54,49.90
2021,02,11,18,55,51.50
2021,02,11,18,56,57.90
2021,02,11,18,57,62.70
2021,02,11,18,58,56.30
2021,02,11,18,59,56.30
2021,02,11,19,00,51.50
2021,02,11,19,01,49.90
2021,02,11,19,02,49.90
2021,02,11,19,03,53.10
2021,02,11,19,04,33.80
2021,02,11,19,05,61.20
2021,02,11,19,06,54.70
2021,02,11,19,07,49.90
2021,02,11,19,08,49.90
2021,02,11,19,09,48.30
2021,02,11,19,10,54.70
2021,02,11,19,11,61.20
2021,02,11,19,12,62.70
2021,02,11,19,13,61.20
2021,02,11,19,14,66.00
2021,02,11,19,15,53.10
2021,02,11,19,16,61.20
2021,02,11,19,17,54.70
2021,02,11,19,18,48.30
2021,02,11,19,19,43.50
2021,02,11,19,20,45.10
2021,02,11,19,21,62.70
2021,02,11,19,22,46.70
2021,02,11,19,23,40.20
2021,02,11,19,24,41.80
2021,02,11,19,25,33.80
2021,02,11,19,26,41.80
2021,02,11,19,27,38.60
2021,02,11,19,28,49.90
2021,02,11,19,29,40.20
2021,02,11,19,30,38.60
2021,02,11,19,31,38.60
2021,02,11,19,32,40.20
2021,02,11,19,33,49.90
2021,02,11,19,34,51.50
2021,02,11,19,35,45.10
2021,02,11,19,36,45.10
2021,02,11,19,37,56.30
2021,02,11,19,38,46.70
2021,02,11,19,39,54.70
2021,02,11,19,40,46.70
2021,02,11,19,41,41.80
2021,02,11,19,42,57.90
2021,02,11,19,43,56.30
2021,02,11,19,44,40.20
2021,02,11,19,45,54.70
2021,02,11,19,46,53.10
2021,02,11,19,47,48.30
2021,02,11,19,48,53.10
2021,02,11,19,49,51.50
2021,02,11,19,50,43.50
2021,02,11,19,51,45.10
2021,02,11,19,52,41.80
2021,02,11,19,53,56.30
2021,02,11,19,54,53.10
2021,02,11,19,55,54.70
2021,02,11,19,56,49.90
2021,02,11,19,57,54.70
2021,02,11,19,58,56.30
2021,02,11,19,59,49.90
2021,02,11,20,00,51.50
2021,02,11,20,01,35.40
2021,02,11,20,02,35.40
2021,02,11,20,03,53.10